Orbital Elements at Epoch 2459200.5 (2020-Dec-17.0) TDB
Reference: JPL 23 (heliocentric ecliptic J2000)
Element | Value | Uncertainty (1-sigma) | Units |
e | .168876676645421 | 3.823e-08 | |
a | 3.180547518825773 | 2.1379e-08 | au |
q | 2.643427223933636 | 1.2938e-07 | au |
i | 5.761237157192749 | 4.2631e-06 | deg |
node | 118.7455281508188 | 3.5884e-05 | deg |
peri | 238.5303499136294 | 3.7883e-05 | deg |
M | 308.4489269944857 | 1.3861e-05 | deg |
tp | 2459497.178768891149 (2021-Oct-09.67876889) | 8.154e-05 | TDB |
period | 2071.81636722458 5.67 | 2.089e-05 5.719e-08 | d yr |
n | .1737605734248825 | 1.752e-09 | deg/d |
Q | 3.717667813717909 | 2.4989e-08 | au |
|
| | Orbit Determination Parameters
Additional Information
|